Location: Oberstdorf
(47.4188°N, 10.2969°E)
Time: 20:29:47
(UTC+01:00)

ISS - Pass Details

Date: 09 January 2018
Orbit: 402 x 407 km, 51.6° (Epoch: 20 January)

Event Time Altitude Azimuth Distance (km) Brightness Sun altitude
Exits shadow 07:21:38 10° 293° (WNW) 1,500 -1.7 -7.2°
Reaches altitude 10° 07:21:43 10° 293° (WNW) 1,468 -1.7 -7.2°
Maximum altitude 07:25:00 75° 209° (SSW) 425 -3.7 -6.7°
Drops below altitude 10° 07:28:17 10° 122° (ESE) 1,464 0.8 -6.2°
Sets 07:30:21 0° 121° (ESE) 2,323 2.8 -5.9°
